Waarnemingen

Advertentie
Mijn weer
Ristem, Zweden (2013): temperatuur & dauwpunt: 13.11.2017 20:00:00 - 19.11.2017 20:00:00 (CET)Ristem, Zweden (2013): windsnelheid & windstoten: 13.11.2017 20:00:00 - 19.11.2017 20:00:00 (CET)Ristem, Zweden (2013): windrichting: 13.11.2017 20:00:00 - 19.11.2017 20:00:00 (CET)Ristem, Zweden (2013): luchtdruk: 13.11.2017 20:00:00 - 19.11.2017 20:00:00 (CET)Ristem, Zweden (2013): zicht: 13.11.2017 20:00:00 - 19.11.2017 20:00:00 (CET)Ristem, Zweden (2013): neerslag: 13.11.2017 20:00:00 - 19.11.2017 20:00:00 (CET)
Datum & Tijd tt [°C] td [°C] ff [km/u] ff [kn] fx [km/u] fx [kn] dd ppp [hPa] vv [km] rr [mm]
19.11.2017 20:00:00 -9,4 -14,6 11 6 22 12 NNO 1010,8 50 0,0
19.11.2017 19:00:00 -9,1 -14,8 10 5 22 12 N 1010,4 50 0,0
19.11.2017 18:00:00 -9,7 -15,4 14 7 19 11 N 1010,2 50 0,0
19.11.2017 17:00:00 -11,8 -16,3 13 7 21 11 NNO 1010,4 50 0,0
19.11.2017 16:00:00 -11,1 -16,0 14 8 23 12 NNO 1010,0 50 0,0
19.11.2017 15:00:00 -9,5 -15,0 13 7 23 12 N 1009,6 50 0,0
19.11.2017 14:00:00 -8,7 -14,5 14 7 22 12 N 1009,3 50 0,0
19.11.2017 13:00:00 -8,8 -14,4 10 5 21 11 NNO 1009,0 50 0,0
19.11.2017 12:00:00 -7,9 -14,1 12 7 21 12 N 1008,4 50 0,0
19.11.2017 11:00:00 -8,8 -14,4 16 9 21 12 N 1008,3 50 0,0
19.11.2017 10:00:00 -8,1 -13,9 12 7 23 12 N 1007,8 50 0,0
19.11.2017 09:00:00 -8,2 -13,8 9 5 23 12 NNO 1007,5 50 0,0
19.11.2017 08:00:00 -8,4 -14,0 11 6 24 13 NNO 1006,8 50 0,0
19.11.2017 07:00:00 -8,5 -13,7 11 6 26 14 NO 1006,3 50 0,0
19.11.2017 06:00:00 -8,8 -12,9 12 6 26 14 NNO 1006,2 50 0,0
19.11.2017 05:00:00 -9,3 -13,8 13 7 25 14 NNO 1006,0 50 0,0
19.11.2017 04:00:00 -8,7 -13,7 14 8 21 11 NNO 1005,3 50 0,0
19.11.2017 03:00:00 -7,2 -11,4 11 6 25 14 ONO 1004,8 50 0,0
19.11.2017 02:00:00 -7,3 -12,2 11 6 25 14 ONO 1004,4 50 0,0
19.11.2017 01:00:00 -6,9 -11,1 13 7 22 12 O 1004,0 50 0,0
19.11.2017 00:00:00 -8,1 -13,0 10 6 22 12 NO 1003,9 50 0,0
18.11.2017 23:00:00 -7,0 -12,7 11 6 22 12 ONO 1003,2 50 0,0
18.11.2017 22:00:00 -5,8 -10,4 10 5 21 12 ONO 1002,7 50 0,0
18.11.2017 21:00:00 -5,5 -10,1 9 5 22 12 O 1002,1 50 0,0
18.11.2017 20:00:00 -5,6 -10,2 14 8 29 16 O 1001,8 50 0,0
18.11.2017 19:00:00 -6,1 -10,7 15 8 34 18 O 1001,6 50 0,0
18.11.2017 18:00:00 -6,2 -10,1 16 9 36 19 OZO 1001,0 50 0,0
18.11.2017 17:00:00 -6,3 -10,7 14 8 36 19 O 1000,8 50 0,0
18.11.2017 16:00:00 -6,8 -10,7 19 11 32 17 O 1000,2 50 0,0
18.11.2017 15:00:00 -6,7 -10,2 13 7 37 20 O 1000,0 50 0,0
18.11.2017 14:00:00 -6,5 -9,5 13 7 37 20 O 999,4 50 0,0
18.11.2017 13:00:00 -6,2 -9,7 21 12 36 19 O 998,7 50 0,0
18.11.2017 12:00:00 -5,7 -9,9 10 5 32 17 O 998,3 50 0,0
18.11.2017 11:00:00 -5,4 -9,8 14 7 34 19 O 997,8 50 0,0
18.11.2017 10:00:00 -5,3 -8,7 20 11 34 19 O 997,2 50 0,0
18.11.2017 09:00:00 -4,5 -8,3 16 9 31 17 OZO 996,4 50 0,0
18.11.2017 08:00:00 -4,1 -7,9 15 8 31 17 OZO 995,7 50 0,0
18.11.2017 07:00:00 -4,0 -7,4 15 8 31 17 O 995,2 50 0,0
18.11.2017 06:00:00 -4,1 -7,0 19 11 31 17 OZO 994,7 50 0,0
18.11.2017 05:00:00 -4,2 -7,3 17 9 30 16 OZO 994,4 50 0,0
18.11.2017 04:00:00 -3,9 -7,7 11 6 26 14 O 994,1 50 0,0
18.11.2017 03:00:00 -3,9 -7,8 12 6 27 15 OZO 994,1 50 0,0
18.11.2017 02:00:00 -4,1 -8,4 10 6 28 15 O 994,0 50 0,0
18.11.2017 01:00:00 -4,6 -8,5 16 8 29 16 O 993,8 50 0,0
18.11.2017 00:00:00 -4,8 -8,0 16 9 34 18 O 993,5 50 0,0
17.11.2017 23:00:00 -4,5 -8,3 16 9 34 18 OZO 993,3 50 0,0
17.11.2017 22:00:00 -4,8 -8,2 17 9 30 16 O 993,1 50 0,0
17.11.2017 21:00:00 -5,0 -8,7 7 4 27 15 ONO 993,0 50 0,0
17.11.2017 20:00:00 -5,5 -9,1 10 5 27 15 O 993,1 50 0,0
17.11.2017 19:00:00 -5,7 -8,3 14 8 27 14 OZO 992,9 50 0,0
17.11.2017 18:00:00 -5,4 -8,5 14 8 27 14 O 993,0 32 0,0
17.11.2017 17:00:00 -5,4 -8,0 10 5 31 17 O 993,2 5 0,1
17.11.2017 16:00:00 -5,7 -8,1 13 7 32 18 O 993,4 2,8 0,1
17.11.2017 15:00:00 -5,8 -8,1 19 10 33 18 OZO 993,2 12 0,0
17.11.2017 14:00:00 -5,7 -7,8 15 8 33 18 O 993,2 6 0,0
17.11.2017 13:00:00 -5,3 -8,4 16 9 27 15 O 993,2 6 0,0
17.11.2017 12:00:00 -5,1 -8,5 17 9 34 19 O 993,4 42 0,0
17.11.2017 11:00:00 -5,5 -8,7 8 4 42 23 OZO 993,6 50 0,0
17.11.2017 10:00:00 -5,7 -8,4 20 11 42 23 O 993,8 50 0,0
17.11.2017 09:00:00 -5,5 -7,9 10 5 32 18 ZO 993,9 50 0,0
17.11.2017 08:00:00 -4,9 -7,7 12 7 37 20 OZO 994,4 13 0,0
17.11.2017 07:00:00 -4,9 -6,9 19 10 41 22 ZO 994,8 2,8 0,3
17.11.2017 06:00:00 -3,5 -6,4 18 10 43 23 ZO 994,8 9 0,0
17.11.2017 05:00:00 -3,7 -6,0 22 12 43 23 ZO 995,4 50 0,0
17.11.2017 04:00:00 -3,4 -5,1 20 11 41 22 ZO 996,2 50 0,0
17.11.2017 03:00:00 -3,0 -5,3 16 8 41 22 ZO 996,6 50 0,0
17.11.2017 02:00:00 -2,8 -5,0 16 9 47 26 ZO 997,2 50 0,0
17.11.2017 01:00:00 -1,4 -6,0 21 12 50 27 ZO 997,3 50 0,0
17.11.2017 00:00:00 -0,8 -5,8 25 14 50 27 OZO 998,0 50 0,0
16.11.2017 23:00:00 -0,7 -5,3 24 13 40 22 OZO 998,8 50 0,0
16.11.2017 22:00:00 -1,0 -5,0 14 8 31 17 ZO 999,7 50 0,0
16.11.2017 21:00:00 -1,4 -6,0 9 5 22 12 N 1000,6 50 0,0
16.11.2017 20:00:00 -3,2 -6,0 11 6 19 10 NNO 1001,9 50 0,0
16.11.2017 19:00:00 -3,1 -5,4 8 4 18 10 NNO 1002,6 50 0,0
16.11.2017 18:00:00 -3,4 -4,5 8 5 14 8 NNO 1003,3 50 0,0
16.11.2017 17:00:00 -2,5 -3,9 10 5 13 7 NO 1003,9 50 0,0
16.11.2017 16:00:00 -2,0 -4,0 6 4 19 10 NO 1004,8 50 0,0
16.11.2017 15:00:00 -1,0 -3,8 5 3 19 10 NNW 1004,9 50 0,0
16.11.2017 14:00:00 0,1 -2,8 12 6 23 12 WNW 1004,8 50 0,0
16.11.2017 13:00:00 0,1 -2,8 12 7 23 12 NW 1005,0 50 0,0
16.11.2017 12:00:00 0,2 -1,9 8 5 21 11 WNW 1005,3 39 0,1
16.11.2017 11:00:00 0,4 -2,6 10 5 24 13 WZW 1004,9 28 0,0
16.11.2017 10:00:00 0,6 -3,0 10 5 24 13 WZW 1004,1 50 0,0
16.11.2017 09:00:00 0,4 -2,8 13 7 34 18 W 1003,2 50 0,0
16.11.2017 08:00:00 0,5 -2,5 10 5 35 19 WZW 1003,0 31 0,0
16.11.2017 07:00:00 -0,4 -2,0 11 6 35 19 ZW 1002,9 3,0 0,0
16.11.2017 06:00:00 -1,0 -2,3 13 7 26 14 Z 1003,2 27 0,0
16.11.2017 05:00:00 -1,3 -3,2 6 3 11 6 ZZO 1003,9 50 0,0
16.11.2017 04:00:00 -1,7 -3,9 0 0 12 6 N 1004,1 6 0,0
16.11.2017 03:00:00 -2,0 -4,7 3 1 12 6 Z 1004,1 30 0,0
16.11.2017 02:00:00 -4,3 -5,8 6 4 9 5 NNO 1004,2 50 0,0
16.11.2017 01:00:00 -3,6 -5,8 3 1 12 6 OZO 1003,9 21 0,0
16.11.2017 00:00:00 -4,9 -6,1 6 3 12 6 NO 1004,1 50 0,0
15.11.2017 23:00:00 -5,3 -6,4 6 3 10 5 NNO 1003,5 50 0,0
15.11.2017 22:00:00 -6,3 -7,7 6 4 18 10 NO 1003,4 50 0,0
15.11.2017 21:00:00 -7,3 -8,5 9 5 18 10 NNO 1003,0 50 0,0
15.11.2017 20:00:00 -8,1 -9,3 12 7 15 8 NNO 1002,4 50 0,0
15.11.2017 19:00:00 -6,8 -7,9 8 4 17 9 N 1001,6 2,5 0,0
15.11.2017 18:00:00 -7,1 -8,0 13 7 17 9 N 1001,2 39 0,0
15.11.2017 17:00:00 -5,8 -6,7 6 3 13 7 ONO 1000,4 50 0,0
15.11.2017 16:00:00 -5,5 -6,7 9 5 11 6 NNO 999,7 50 0,0
15.11.2017 15:00:00 -3,4 -5,9 8 4 10 6 NO 999,5 50 0,0
15.11.2017 14:00:00 -3,1 -5,9 3 2 8 5 NW 999,5 50 0,0
15.11.2017 13:00:00 -2,9 -6,4 0 0 7 4 N 999,1 50 0,0
15.11.2017 12:00:00 -2,5 -6,5 0 0 8 4 N 999,2 50 0,0
15.11.2017 11:00:00 -3,4 -6,2 3 1 10 5 N 999,4 50 0,0
15.11.2017 10:00:00 -4,4 -6,2 3 2 11 6 NO 999,5 50 0,0
15.11.2017 09:00:00 -5,1 -6,8 7 4 15 8 NNO 999,4 50 0,0
15.11.2017 08:00:00 -6,1 -7,6 9 5 15 8 NNO 999,6 50 0,0
15.11.2017 07:00:00 -6,6 -7,8 9 5 18 10 NNO 999,4 50 0,0
15.11.2017 06:00:00 -7,8 -9,3 0 0 20 11 N 999,7 50 0,0
15.11.2017 05:00:00 -7,3 -9,2 13 7 20 11 NNO 999,8 50 0,0
15.11.2017 04:00:00 -6,8 -8,2 10 5 12 6 N 1000,3 50 0,0
15.11.2017 03:00:00 -6,3 -8,0 9 5 17 9 NO 1000,5 50 0,0
15.11.2017 02:00:00 -5,4 -7,5 11 6 17 9 NO 1000,8 50 0,0
15.11.2017 01:00:00 -4,5 -6,5 8 5 12 6 N 1001,0 50 0,0
15.11.2017 00:00:00 -4,7 -6,7 5 3 15 8 N 1001,2 50 0,0
14.11.2017 23:00:00 -6,2 -8,2 4 2 15 8 NNW 1001,6 50 0,0
14.11.2017 22:00:00 -5,6 -7,9 13 7 16 8 NNO 1001,6 50 0,0
14.11.2017 21:00:00 -7,2 -9,3 9 5 16 8 NNO 1001,9 50 0,0
14.11.2017 20:00:00 -5,0 -7,3 7 4 13 7 NO 1001,6 50 0,0
14.11.2017 19:00:00 -5,5 -7,8 6 3 13 7 N 1001,8 50 0,0
14.11.2017 18:00:00 -4,7 -6,8 5 3 19 10 NO 1001,8 50 0,0
14.11.2017 17:00:00 -4,6 -7,0 6 3 19 10 NNO 1001,8 50 0,0
14.11.2017 16:00:00 -6,7 -8,9 15 8 19 10 NNO 1002,0 50 0,0
14.11.2017 15:00:00 -6,1 -8,5 14 8 17 9 NNO 1001,8 50 0,0
14.11.2017 14:00:00 -5,6 -8,2 13 7 16 9 N 1001,7 50 0,0
14.11.2017 13:00:00 -2,2 -5,0 6 4 14 7 NW 1001,3 50 0,0
14.11.2017 12:00:00 -3,4 -5,6 9 5 14 7 NW 1001,5 50 0,0
14.11.2017 11:00:00 -2,9 -5,4 7 4 13 7 WNW 1001,6 50 0,0
14.11.2017 10:00:00 -2,7 -4,7 5 3 14 8 NW 1001,4 50 0,0
14.11.2017 09:00:00 -1,4 -3,4 6 4 16 8 WNW 1001,2 50 0,0
14.11.2017 08:00:00 -1,4 -2,8 8 4 17 9 NW 1001,4 50 0,0
14.11.2017 07:00:00 -1,2 -2,8 8 4 19 10 WNW 1001,3 6 0,0
14.11.2017 06:00:00 -1,0 -2,7 11 6 22 12 WNW 1001,3 50 0,0
14.11.2017 05:00:00 -1,0 -2,6 9 5 22 12 WNW 1001,6 4,2 0,2
14.11.2017 04:00:00 -0,8 -2,2 11 6 20 11 WNW 1001,7 5 0,2
14.11.2017 03:00:00 -0,9 -2,3 8 4 20 11 WNW 1001,9 1,7 0,1
14.11.2017 02:00:00 -0,9 -2,3 11 6 20 11 W 1002,1 10 0,1
14.11.2017 01:00:00 -0,9 -1,9 8 4 23 13 WNW 1002,3 4,0 0,0
14.11.2017 00:00:00 -0,8 -2,1 12 6 23 13 W 1002,4 28 0,1
13.11.2017 23:00:00 -0,7 -1,8 6 4 19 11 W 1002,4 35 0,0
13.11.2017 22:00:00 -0,9 -2,2 6 4 19 11 W 1002,6 29 0,0
13.11.2017 21:00:00 -0,7 -1,8 8 4 19 11 W 1002,4 4,9 0,3
13.11.2017 20:00:00 -0,8 -1,4 9 5 18 10 W 1002,4 3,1 0,2

tt = temperatuur
td = dauwpunt
ff = windsnelheid
fx = windstoten
dd = windrichting
ppp = luchtdruk
vv = zicht
rr = neerslag

Weerstations in de omgeving